Date,TemperatureHighF,TemperatureAvgF,TemperatureLowF,DewpointHighF,DewpointAvgF,DewpointLowF,HumidityHigh,HumidityAvg,HumidityLow,PressureMaxIn,PressureMinIn,WindSpeedMaxMPH,WindSpeedAvgMPH,GustSpeedMaxMPH,PrecipitationSumIn
2013-1-1,0,-9,-12,0,-15,-19,67,51,67,29.03,28.79,12,3,12,0.00
2013-1-2,0,0,0,0,0,0,0,0,100,28.94,28.70,18,5,19,0.00
2013-1-3,0,0,0,0,0,0,0,0,100,29.09,28.82,19,7,19,0.00
2013-1-4,5,0,0,0,0,-4,69,7,69,28.91,28.79,11,4,11,0.00
2013-1-5,22,9,-2,13,1,-10,84,69,55,28.88,28.64,18,4,18,0.00
2013-1-6,20,13,5,14,6,-2,88,74,63,29.03,28.67,13,4,13,0.00
2013-1-7,36,24,14,22,17,10,87,73,54,28.76,28.61,12,4,12,0.00
2013-1-8,34,22,8,26,16,5,94,80,62,28.76,28.50,26,5,26,0.12
2013-1-9,34,28,21,26,18,11,88,67,55,29.12,28.70,29,8,29,0.04
2013-1-10,41,34,29,32,25,18,98,72,43,28.97,28.47,24,8,24,0.17
2013-1-11,36,33,21,36,33,18,98,97,88,28.50,28.17,19,5,19,0.00
2013-1-12,22,7,0,18,4,-3,90,85,81,28.88,28.23,33,14,33,0.87
2013-1-13,7,2,-3,3,-1,-7,85,85,85,29.03,28.85,15,6,15,0.00
2013-1-14,11,4,-4,7,0,-7,85,85,85,29.17,29.00,10,4,10,0.00
2013-1-15,24,14,2,10,5,-2,85,69,49,29.03,28.52,13,4,13,0.00
2013-1-16,34,21,-2,33,12,-15,98,69,49,29.06,28.44,23,8,23,0.00
2013-1-17,19,9,-3,5,-5,-16,62,53,47,29.17,29.00,17,5,17,0.00
2013-1-18,37,26,15,25,18,4,91,72,57,29.00,28.52,18,6,18,0.00
2013-1-19,38,18,-2,27,9,-14,97,69,50,29.06,28.47,44,14,46,27.61
2013-1-20,9,0,-8,-4,-12,-20,55,55,55,29.15,29.03,24,10,24,0.00
2013-1-21,-3,-10,-15,-15,-22,-26,55,55,55,29.12,29.03,26,9,26,0.00
2013-1-22,5,-6,-18,-8,-18,-29,55,55,55,29.17,29.00,7,2,7,0.00
2013-1-23,8,2,-10,-4,-11,-22,55,55,55,29.38,28.94,28,7,28,0.00
2013-1-24,12,1,-10,-1,-11,-22,55,55,55,29.41,28.88,24,9,24,0.04
2013-1-25,17,7,-5,10,-5,-16,73,58,55,29.12,28.76,35,10,35,1.46
2013-1-26,20,9,-6,7,-4,-17,58,56,48,29.09,28.82,24,8,24,0.00
2013-1-27,33,27,20,30,20,0,95,74,55,28.82,28.55,19,8,19,0.00
2013-1-28,36,32,30,34,31,29,98,96,89,28.64,28.41,20,3,20,0.08
2013-1-29,32,28,22,31,25,14,98,86,71,28.61,28.35,14,2,14,0.00
2013-1-30,22,11,0,15,2,-10,73,66,58,28.61,28.52,27,9,27,0.00
2013-1-31,0,-6,-10,-10,-15,-20,62,62,62,29.09,28.61,32,15,32,0.00
2013-2-1,-10,-10,-10,-20,-20,-20,62,62,62,29.09,28.82,17,6,17,0.00
2013-2-2,-10,-10,-10,-20,-20,-20,62,62,62,28.97,28.73,20,4,20,0.00
2013-2-3,0,-5,-10,0,-10,-20,62,32,62,28.88,28.73,24,6,24,0.00
2013-2-4,18,4,0,15,0,-7,88,18,49,28.88,28.47,11,4,11,0.00
2013-2-5,29,18,2,28,9,-11,98,69,54,28.88,28.44,22,7,22,0.00
2013-2-6,32,18,3,18,8,-10,86,65,52,28.88,28.64,27,8,27,0.00
2013-2-7,27,22,15,20,17,8,91,79,65,29.09,28.79,20,8,20,0.00
2013-2-8,32,17,1,20,9,-5,86,73,48,29.12,28.88,27,8,27,0.08
2013-2-9,31,28,24,30,25,20,98,88,77,28.91,28.64,24,9,24,0.00
2013-2-10,29,27,25,29,26,23,98,95,87,28.67,28.14,36,16,36,1.74
2013-2-11,26,20,7,23,18,4,98,92,82,28.88,28.29,30,13,30,0.00
2013-2-12,31,19,5,30,16,2,98,87,61,28.85,28.61,17,4,17,0.00
2013-2-13,38,26,11,31,21,8,98,83,55,28.64,28.35,8,2,8,0.00
2013-2-14,31,19,1,29,9,-11,96,68,44,29.03,28.47,18,5,18,0.00
2013-2-15,20,5,-4,2,-9,-18,58,53,45,29.12,29.00,13,5,13,0.00
2013-2-16,27,12,5,9,-3,-10,71,52,44,29.06,28.82,15,6,15,0.00
2013-2-17,34,22,5,24,12,-7,85,65,52,28.85,28.35,26,10,26,0.00
2013-2-18,32,14,-3,30,12,-5,98,90,78,28.73,28.29,37,15,37,36.68
2013-2-19,-1,-5,-11,-4,-8,-14,89,89,89,29.20,28.73,28,12,28,1.13
2013-2-20,19,0,-16,17,-3,-18,93,89,88,29.23,29.12,11,4,11,0.00
2013-2-21,25,12,1,24,10,-1,98,90,88,29.20,28.88,22,11,22,0.00
2013-2-22,34,21,12,27,17,8,92,84,58,28.88,28.64,22,7,22,0.00
2013-2-23,29,15,4,19,10,1,89,82,55,28.73,28.64,12,3,12,0.00
2013-2-24,33,13,0,24,7,-2,89,79,49,28.91,28.73,6,1,6,0.00
2013-2-25,31,20,2,25,15,-2,92,83,64,28.91,28.82,9,2,9,0.00
2013-2-26,32,22,16,24,19,14,96,87,70,28.88,28.70,15,4,15,0.04
2013-2-27,38,24,17,21,15,11,85,69,46,28.88,28.70,20,6,20,0.00
2013-2-28,31,24,13,21,16,7,85,71,55,29.06,28.88,12,4,14,0.00
2013-3-1,34,18,4,16,9,-4,82,71,46,29.17,29.00,14,5,14,0.00
2013-3-2,37,14,-6,16,4,-13,82,64,32,29.14,28.91,14,4,14,0.00
2013-3-3,38,25,14,19,12,7,100,59,42,28.91,28.70,28,13,28,0.08
2013-3-4,27,24,22,22,19,0,96,82,72,28.79,28.64,31,17,31,2.44
2013-3-5,35,25,18,22,18,12,92,76,50,29.12,28.73,15,7,15,0.00
2013-3-6,37,17,1,19,8,-5,84,69,43,29.23,29.09,11,3,11,0.04
2013-3-7,34,16,-2,16,6,-8,80,65,45,29.14,29.00,25,8,25,0.00
2013-3-8,46,26,13,29,18,9,87,71,40,29.03,28.85,18,7,18,0.05
2013-3-9,36,34,32,35,33,29,98,96,88,28.85,28.47,17,7,17,0.90
2013-3-10,32,28,25,29,20,15,90,74,58,28.85,28.64,24,9,24,0.30
2013-3-11,28,22,17,17,12,0,77,64,51,28.76,28.58,22,7,22,0.00
2013-3-12,27,20,13,20,12,6,81,70,53,29.03,28.64,31,11,31,0.04
2013-3-13,30,17,3,17,8,-2,76,66,46,29.14,28.94,13,4,13,0.00
2013-3-14,49,30,20,29,21,16,88,73,40,29.00,28.79,20,5,20,0.00
2013-3-15,35,30,23,30,26,0,95,87,75,28.79,28.58,19,9,19,0.05
2013-3-16,23,15,3,20,4,-11,89,64,48,29.06,28.73,18,7,18,0.00
2013-3-17,26,15,1,23,2,-12,94,57,46,29.06,28.47,39,15,39,3.03
2013-3-18,32,18,9,31,15,6,98,89,73,28.73,28.35,38,19,38,0.00
2013-3-19,9,9,9,6,6,6,88,88,88,29.06,28.73,30,14,30,0.00
2013-3-20,9,9,9,6,6,6,88,88,88,29.09,28.94,27,11,27,0.00
2013-3-21,9,4,0,6,3,0,88,37,88,28.94,28.82,7,2,7,0.00
2013-3-22,0,0,0,0,0,0,0,0,100,28.91,28.82,8,2,8,0.00
2013-3-23,32,6,0,34,4,0,75,16,13,28.97,28.88,13,4,13,0.00
2013-3-24,38,27,18,26,18,12,84,71,50,28.88,28.76,19,6,19,0.00
2013-3-25,38,27,19,22,18,12,77,66,44,29.03,28.82,22,7,22,0.00
2013-3-26,39,22,9,22,13,3,81,69,46,29.06,29.00,8,3,8,0.00
2013-3-27,48,26,8,28,14,3,81,64,39,29.12,29.03,13,3,13,0.00
2013-3-28,48,33,20,28,22,12,81,66,45,29.09,29.00,21,8,21,0.00
2013-3-29,34,33,32,30,29,26,86,84,80,29.03,29.00,9,5,9,0.00
2013-3-30,44,37,32,36,32,30,97,83,69,29.00,28.70,14,8,15,0.00
2013-3-31,36,31,20,33,21,10,98,70,44,28.97,28.61,32,13,32,0.00
2013-4-1,33,22,13,17,11,6,77,62,48,29.09,28.94,20,8,20,0.00
2013-4-2,42,26,16,20,14,8,89,62,38,29.12,29.03,11,3,11,0.00
2013-4-3,52,33,14,34,21,8,79,62,45,29.12,28.76,20,5,20,0.00
2013-4-4,48,35,26,33,28,18,91,77,43,29.00,28.76,20,7,20,0.00
2013-4-5,36,31,23,31,24,0,88,75,52,29.00,28.61,34,14,35,0.00
2013-4-6,52,40,34,39,32,29,91,75,57,28.61,28.35,31,10,31,0.00
2013-4-7,50,38,30,37,32,26,96,79,51,32.36,28.52,19,6,19,0.00
2013-4-8,80,38,35,39,36,0,98,92,82,28.88,28.47,20,9,20,0.00
2013-4-9,36,33,28,33,21,18,86,63,51,28.97,28.82,32,11,32,0.00
2013-4-10,37,34,31,29,22,0,92,59,50,29.00,28.70,34,18,34,0.00
2013-4-11,36,32,28,32,29,26,98,89,75,28.73,28.50,42,19,42,0.00
2013-4-12,42,32,26,29,25,23,93,78,51,28.67,28.52,20,7,20,0.00
2013-4-13,43,32,28,27,24,21,92,73,49,28.73,28.64,18,6,18,0.00
2013-4-14,34,32,29,34,28,23,98,87,75,28.70,28.23,42,11,42,0.00
2013-4-15,38,35,32,33,28,26,96,78,64,28.79,28.23,29,7,29,0.00
2013-4-16,46,32,27,28,25,22,87,75,49,29.09,28.76,20,8,23,0.00
2013-4-17,39,34,28,33,28,0,97,79,66,29.09,28.79,23,8,23,0.00
2013-4-18,35,32,31,33,31,28,98,94,85,28.79,28.47,20,6,20,0.00
2013-4-19,39,32,25,30,23,16,98,72,51,28.82,28.41,26,7,26,0.00
2013-4-20,50,30,17,25,18,13,87,64,37,29.06,28.82,16,4,16,0.00
2013-4-21,50,38,30,43,34,25,97,84,59,29.03,28.76,27,10,27,0.00
2013-4-22,37,33,29,33,28,22,95,83,57,29.03,28.94,20,6,20,0.00
2013-4-23,42,31,22,25,20,14,85,65,49,29.03,28.82,19,8,19,0.00
2013-4-24,47,35,23,36,27,18,98,74,44,28.88,28.64,30,8,30,0.00
2013-4-25,56,40,25,32,27,0,100,65,39,28.94,28.73,25,8,25,0.00
2013-4-26,75,53,34,44,35,24,85,55,25,28.88,28.64,23,6,23,0.00
2013-4-27,77,54,30,39,31,25,83,48,16,28.91,28.58,10,3,10,0.00
2013-4-28,79,61,49,49,43,30,81,55,30,28.61,28.41,18,6,18,0.00
2013-4-29,82,56,38,43,28,-20,81,47,2,28.61,28.23,15,5,15,0.00
2013-4-30,70,59,48,55,41,27,83,54,24,28.76,28.11,28,13,33,0.00
2013-5-1,48,40,34,30,24,18,67,53,43,29.29,28.76,25,9,25,0.00
2013-5-2,50,39,32,26,22,18,72,53,38,29.38,29.20,25,8,25,0.00
2013-5-3,48,37,27,32,22,16,83,56,39,29.23,28.91,26,9,26,0.00
2013-5-4,40,37,34,38,35,32,97,92,85,28.94,28.88,22,9,22,0.00
2013-5-5,58,46,38,46,42,37,98,86,63,28.94,28.85,10,4,10,0.00
2013-5-6,78,56,38,53,44,36,96,69,38,28.91,28.76,9,2,9,0.00
2013-5-7,84,61,39,54,43,36,95,59,26,28.85,28.67,14,2,14,0.00
2013-5-8,64,58,52,58,52,41,96,82,46,28.82,28.70,18,5,18,0.00
2013-5-9,56,53,46,54,49,36,97,86,66,28.91,28.73,27,12,27,0.00
2013-5-10,75,55,37,47,30,-14,79,46,3,28.94,28.64,29,8,29,0.00
2013-5-11,55,46,35,36,25,17,73,45,26,28.97,28.76,33,12,33,0.00
2013-5-12,63,47,30,26,12,-11,66,33,5,29.03,28.85,20,5,20,0.00
2013-5-13,83,62,38,49,36,23,57,39,30,28.85,28.41,18,6,18,0.00
2013-5-14,99,71,46,57,33,-17,85,39,2,28.52,28.29,40,10,40,0.00
2013-5-15,84,66,49,49,43,37,78,46,21,28.70,28.52,22,6,22,0.00
2013-5-16,88,66,45,50,44,37,80,47,23,28.67,28.55,27,9,27,0.00
2013-5-17,66,61,57,57,50,0,95,73,35,28.73,28.61,31,16,31,0.00
2013-5-18,78,66,57,68,62,56,98,87,69,28.67,28.47,27,9,27,0.00
2013-5-19,85,68,61,69,62,58,97,84,47,28.52,28.29,33,7,33,0.00
2013-5-20,71,63,59,64,59,52,97,86,62,28.32,28.23,18,5,18,0.00
2013-5-21,59,53,48,58,52,47,98,96,90,28.52,28.23,28,13,31,0.00
2013-5-22,54,49,46,50,47,43,98,91,75,28.82,28.50,42,15,42,0.00
2013-5-23,68,55,43,43,40,35,90,60,34,29.09,28.82,24,8,24,0.00
2013-5-24,74,56,39,52,41,31,90,59,32,29.12,28.88,27,9,27,0.00
2013-5-25,59,56,53,52,50,46,86,78,72,30.13,28.88,32,16,32,0.10
2013-5-26,57,54,51,51,48,44,88,79,66,30.13,29.91,28,17,37,11.38
2013-5-27,63,57,54,55,53,50,95,86,71,29.97,29.74,20,13,28,0.00
2013-5-28,68,58,53,60,55,51,97,90,72,29.76,29.65,14,5,18,0.00
2013-5-29,73,63,54,68,60,53,98,91,78,29.76,29.50,22,8,30,0.00
2013-5-30,82,69,63,64,61,56,94,77,48,29.54,29.37,20,7,23,0.00
2013-5-31,67,63,58,62,54,51,90,71,59,29.47,29.34,8,3,13,0.00
2013-6-1,69,57,50,58,50,43,95,78,64,29.98,29.47,10,3,15,0.00
2013-6-2,70,58,46,47,40,37,86,55,36,30.08,29.94,9,3,13,1.33
2013-6-3,73,57,41,50,43,37,93,63,37,30.06,29.85,22,6,28,0.75
2013-6-4,61,58,56,57,53,45,97,85,58,30.02,29.87,20,11,26,0.75
2013-6-5,67,59,55,56,54,51,97,83,60,30.00,29.88,12,4,18,0.00
2013-6-6,62,55,51,53,50,48,95,84,70,30.04,29.96,9,5,13,0.00
2013-6-7,69,58,52,54,51,47,91,76,49,30.06,29.84,7,2,9,0.00
2013-6-8,69,62,56,56,53,49,90,73,51,29.87,29.77,13,6,19,0.00
2013-6-9,62,59,57,58,57,54,97,93,77,29.81,29.68,24,12,31,2.67
2013-6-10,58,57,57,57,56,56,97,97,96,29.81,29.75,3,1,5,0.00
2013-6-11,77,69,62,68,61,55,96,78,51,29.86,29.75,9,2,11,0.00
2013-6-12,72,65,60,63,57,51,92,76,60,29.93,29.68,28,4,36,0.66
2013-6-13,84,68,56,59,54,50,83,63,37,30.06,29.92,9,3,15,0.00
2013-6-14,81,71,62,64,59,55,86,68,49,29.99,29.68,22,9,28,0.00
2013-6-15,82,72,60,67,56,45,94,63,32,29.80,29.67,11,2,13,0.00
2013-6-16,88,71,57,57,51,44,81,54,23,29.84,29.67,16,4,28,0.00
2013-6-17,81,70,58,60,54,52,86,59,40,29.88,29.76,12,5,19,0.00
2013-6-18,82,68,55,59,55,48,92,66,43,30.00,29.83,16,5,21,0.08
2013-6-19,92,76,64,65,59,54,83,59,37,29.92,29.69,10,5,13,0.00
2013-6-20,89,78,71,69,64,60,81,63,44,29.84,29.57,14,5,19,0.00
2013-6-21,81,72,62,69,65,60,97,80,61,29.92,29.52,26,10,57,0.90
2013-6-22,82,71,65,71,66,61,92,83,61,29.82,29.60,32,5,38,0.00
2013-6-23,80,72,65,69,65,58,97,79,52,29.70,29.36,20,6,30,0.00
2013-6-24,81,71,60,71,65,58,96,84,66,29.74,29.58,17,3,19,0.00
2013-6-25,93,77,67,74,70,64,93,79,52,29.63,29.43,15,7,18,0.00
2013-6-26,87,78,70,72,67,61,93,72,45,29.61,29.43,17,4,27,0.00
2013-6-27,87,76,67,66,60,50,92,61,35,29.69,29.59,18,7,27,0.00
2013-6-28,78,71,65,62,58,55,80,64,47,29.73,29.67,19,8,26,0.00
2013-6-29,82,70,62,63,57,50,92,65,37,29.86,29.64,13,4,20,0.00
2013-6-30,86,71,58,58,53,50,88,59,32,30.03,29.86,7,2,17,0.00
2013-7-1,91,73,59,64,58,52,91,63,31,30.11,29.91,7,2,9,0.00
2013-7-2,94,74,60,63,58,55,90,63,34,30.08,29.84,7,2,9,0.00
2013-7-3,93,75,60,63,56,52,90,56,30,29.96,29.73,10,2,15,0.00
2013-7-4,94,78,65,63,57,52,71,50,32,29.82,29.59,6,2,10,0.00
2013-7-5,93,80,70,67,61,54,65,52,40,29.69,29.50,6,3,10,0.00
2013-7-6,84,76,68,73,67,62,93,76,60,29.72,29.58,8,2,10,0.33
2013-7-7,96,78,70,77,71,67,94,81,50,29.81,29.64,10,1,13,0.29
2013-7-8,90,75,64,72,66,61,90,75,47,29.89,29.78,9,3,11,0.00
2013-7-9,83,74,66,72,68,60,97,82,61,29.88,29.60,19,8,30,2.20
2013-7-10,82,69,58,62,58,54,94,69,42,29.99,29.88,9,3,13,0.00
2013-7-11,89,73,58,64,60,56,94,67,39,30.02,29.78,9,2,13,0.00
2013-7-12,93,79,69,69,63,57,72,58,42,29.84,29.65,8,4,14,0.00
2013-7-13,79,73,70,70,67,62,87,80,57,29.90,29.74,17,7,21,0.08
2013-7-14,73,70,68,69,65,60,96,84,72,30.06,29.87,10,2,13,0.13
2013-7-15,92,77,67,71,67,64,95,75,45,30.12,30.00,7,2,10,0.00
2013-7-16,92,81,73,74,69,64,89,69,45,30.08,29.99,6,2,8,0.00
2013-7-17,93,81,71,74,70,66,86,69,47,30.14,29.96,6,2,10,0.00
2013-7-18,93,83,75,74,71,67,84,68,46,29.98,29.60,9,4,13,0.00
2013-7-19,85,76,67,73,64,58,91,68,44,29.82,29.64,13,5,18,0.00
2013-7-20,81,70,62,67,62,59,93,76,52,29.87,29.74,9,3,12,0.00
2013-7-21,87,74,66,69,64,59,88,72,51,29.82,29.63,12,6,16,0.00
2013-7-22,85,74,62,72,64,53,92,73,48,29.83,29.53,14,4,18,0.00
2013-7-23,83,68,57,59,54,51,91,65,38,29.93,29.77,8,2,10,0.00
2013-7-24,83,70,59,60,56,52,90,64,38,29.95,29.81,7,2,11,0.00
2013-7-25,77,69,61,67,62,57,95,80,57,29.91,29.77,11,3,15,0.16
2013-7-26,70,62,53,60,53,46,94,74,50,30.07,29.84,15,6,21,0.00
2013-7-27,71,60,47,50,45,42,88,61,41,30.07,29.82,13,4,18,0.00
2013-7-28,78,62,49,53,47,42,82,60,39,30.00,29.86,7,2,11,0.00
2013-7-29,85,64,48,60,53,45,94,70,39,30.02,29.91,9,2,12,0.00
2013-7-30,73,66,61,65,62,58,97,87,70,30.01,29.87,8,1,10,0.00
2013-7-31,81,66,56,68,58,49,97,77,46,30.01,29.86,15,3,30,0.00
2013-8-1,87,67,52,59,54,48,92,67,38,29.97,29.74,8,2,12,0.00
2013-8-2,76,66,54,60,54,50,92,66,44,29.99,29.77,5,2,9,0.00
2013-8-3,82,66,52,59,50,44,87,62,38,30.12,29.96,6,2,11,0.00
2013-8-4,78,65,49,59,53,44,96,68,46,30.16,29.85,10,4,13,0.00
2013-8-5,82,69,61,68,62,56,96,81,56,29.95,29.67,21,3,24,0.00
2013-8-6,85,68,56,69,62,54,96,82,50,29.77,29.54,15,2,34,0.00
2013-8-7,81,66,57,60,55,50,97,70,39,29.93,29.71,6,2,10,0.00
2013-8-8,78,65,56,63,58,51,94,79,50,29.97,29.86,3,1,6,0.00
2013-8-9,75,64,54,60,53,49,95,71,43,30.05,29.90,11,3,17,0.00
2013-8-10,83,66,53,59,54,50,94,69,39,30.13,29.93,6,2,8,0.00
2013-8-11,89,71,62,66,60,57,89,70,41,29.98,29.85,6,2,9,0.00
2013-8-12,82,68,56,61,56,52,92,69,40,30.00,29.89,7,2,11,1.61
2013-8-13,86,66,52,61,51,46,94,63,33,30.12,29.98,6,2,9,0.00
2013-8-14,82,63,49,59,50,45,93,68,38,30.13,29.94,5,1,8,0.00
2013-8-15,81,64,51,64,55,47,95,76,46,30.05,29.91,4,1,7,0.00
2013-8-16,84,66,50,63,55,48,96,72,41,30.10,29.98,8,1,9,0.00
2013-8-17,84,70,57,61,58,52,89,68,42,30.06,29.91,5,2,9,0.00
2013-8-18,83,72,62,62,59,56,82,65,46,30.01,29.83,5,2,10,0.00
2013-8-19,92,77,66,72,67,60,89,72,50,29.91,29.72,7,2,9,0.00
2013-8-20,95,80,69,76,72,67,93,79,52,29.81,29.66,8,2,11,0.00
2013-8-21,92,79,71,77,68,54,95,71,44,29.90,29.67,10,2,13,0.00
2013-8-22,88,74,61,60,54,50,79,53,30,30.08,29.90,13,5,18,0.00
2013-8-23,91,73,56,70,62,50,86,70,42,30.09,29.85,13,5,17,0.00
2013-8-24,93,80,71,74,71,67,91,75,44,29.93,29.71,8,4,15,0.00
2013-8-25,93,83,75,77,74,71,87,76,55,29.86,29.74,5,2,9,0.00
2013-8-26,98,84,74,78,75,71,91,77,46,29.86,29.64,5,1,9,0.00
2013-8-27,92,82,72,80,75,68,94,81,63,29.84,29.64,9,2,11,0.00
2013-8-28,86,77,66,76,72,64,97,84,68,29.91,29.78,14,4,19,0.00
2013-8-29,95,82,75,76,72,67,95,76,46,29.86,29.65,7,2,10,0.00
2013-8-30,88,75,64,72,66,60,94,75,46,29.84,29.70,11,3,13,0.00
2013-8-31,93,72,60,70,64,58,97,81,43,29.83,29.59,21,3,32,2.64
2013-9-1,67,63,54,66,59,52,96,86,70,29.97,29.70,12,6,18,0.00
2013-9-2,72,58,48,54,50,46,95,77,51,30.03,29.91,6,2,10,0.00
2013-9-3,79,62,46,64,55,44,95,79,53,30.01,29.83,4,0,6,0.00
2013-9-4,92,72,55,70,63,54,97,77,45,30.03,29.90,9,2,15,0.00
2013-9-5,90,75,66,69,64,57,82,69,47,30.09,29.91,11,6,15,0.00
2013-9-6,93,78,69,72,67,63,91,70,43,29.97,29.68,5,2,10,0.00
2013-9-7,92,78,67,72,68,65,95,75,44,29.89,29.75,14,4,23,0.00
2013-9-8,74,67,65,67,62,59,91,84,70,29.94,29.76,16,8,20,0.00
2013-9-9,86,74,66,76,69,62,96,85,67,29.76,29.47,17,5,23,0.00
2013-9-10,82,71,64,68,63,56,96,78,47,29.89,29.66,11,4,18,0.00
2013-9-11,84,70,58,64,56,44,93,65,35,30.05,29.88,14,4,19,0.00
2013-9-12,79,63,51,55,48,44,89,63,35,30.19,30.02,8,2,13,0.00
2013-9-13,78,60,45,52,46,41,90,64,37,30.21,29.94,7,2,12,0.00
2013-9-14,65,58,53,58,52,44,96,80,62,29.97,29.71,13,4,20,0.00
2013-9-15,67,58,46,59,54,43,98,85,62,30.24,29.72,14,5,19,0.00
2013-9-16,74,58,48,51,48,42,97,72,40,30.29,30.07,13,6,17,0.00
2013-9-17,64,58,52,58,54,49,96,85,74,30.10,29.77,16,5,21,0.00
2013-9-18,78,68,59,71,65,58,97,92,78,29.78,29.49,11,4,14,0.00
2013-9-19,73,67,59,70,62,51,97,85,53,29.75,29.48,15,6,30,0.00
2013-9-20,64,56,47,55,50,43,96,81,57,29.87,29.72,15,7,22,0.00
2013-9-21,69,53,40,50,45,38,96,76,44,29.94,29.77,10,3,14,0.60
2013-9-22,82,64,52,57,52,48,87,68,40,29.85,29.63,19,10,25,0.43
2013-9-23,78,65,57,55,52,49,82,64,42,29.80,29.65,16,7,21,0.00
2013-9-24,71,61,51,58,52,47,86,72,54,29.86,29.75,9,3,11,0.00
2013-9-25,81,62,48,60,51,45,95,71,41,29.86,29.68,16,5,21,0.00
2013-9-26,82,69,59,61,56,52,85,66,46,29.77,29.58,19,9,27,0.00
2013-9-27,74,69,64,68,63,59,93,82,66,29.73,29.56,16,5,22,0.16
2013-9-28,73,59,49,61,51,41,97,77,51,29.86,29.49,17,6,26,0.53
2013-9-29,80,60,45,52,45,41,86,61,35,29.87,29.56,6,2,12,0.00
2013-9-30,76,66,56,52,48,43,70,52,42,29.59,29.42,4,2,10,0.00
2013-10-1,72,61,46,52,43,35,82,54,28,29.90,29.39,17,5,23,0.00
2013-10-2,79,54,40,54,44,34,95,73,32,29.95,29.66,21,6,27,0.50
2013-10-3,56,54,53,55,54,51,98,97,94,29.88,29.72,14,8,19,1.00
2013-10-4,58,55,53,55,54,52,98,95,90,29.88,29.66,28,15,37,0.04
2013-10-5,57,52,45,57,47,40,98,83,61,29.74,29.60,22,7,28,0.00
2013-10-6,56,48,44,51,45,39,97,89,64,29.81,29.55,7,3,11,0.17
2013-10-7,72,52,40,52,42,38,96,72,41,29.88,29.75,4,1,7,0.00
2013-10-8,77,63,52,49,44,41,74,52,33,29.82,29.55,7,3,13,0.00
2013-10-9,77,63,54,53,48,43,76,59,42,29.89,29.71,8,3,11,0.00
2013-10-10,80,65,54,55,49,46,77,58,41,29.87,29.64,15,5,18,0.00
2013-10-11,67,61,53,61,54,46,94,76,56,29.71,29.39,22,10,28,0.54
2013-10-12,54,49,40,46,40,33,94,72,52,30.10,29.54,17,7,26,0.03
2013-10-13,62,45,34,43,34,30,91,69,38,30.31,30.10,6,2,9,0.00
2013-10-14,50,48,41,48,42,34,96,81,65,30.28,29.74,31,13,42,0.45
2013-10-15,50,48,44,49,46,42,98,96,91,29.84,29.55,33,11,39,0.38
2013-10-16,54,44,35,43,36,30,97,76,46,29.89,29.73,9,4,12,0.00
2013-10-17,49,42,35,46,39,32,97,89,78,29.82,29.70,13,4,23,0.37
2013-10-18,52,41,32,39,33,28,96,77,43,29.93,29.74,12,4,17,0.00
2013-10-19,40,35,31,35,30,26,95,83,57,29.78,29.65,6,3,8,0.04
2013-10-20,41,37,31,39,32,20,93,84,56,29.87,29.51,13,4,23,0.04
2013-10-21,40,33,27,23,20,18,78,59,49,29.92,29.83,17,7,22,0.00
2013-10-22,45,33,24,33,25,19,92,73,51,29.96,29.86,11,4,15,0.00
2013-10-23,41,34,29,29,22,16,89,64,44,30.10,29.90,11,5,19,0.00
2013-10-24,44,35,27,32,27,16,92,74,54,30.25,30.04,11,6,17,0.00
2013-10-25,60,42,24,42,31,20,88,69,47,30.26,29.65,13,5,17,0.00
2013-10-26,47,39,29,34,26,23,83,62,48,30.06,29.74,17,8,26,0.00
2013-10-27,59,42,29,35,28,23,86,61,40,30.07,29.66,13,5,19,0.00
2013-10-28,46,35,29,28,24,19,81,63,44,30.37,30.07,19,11,24,0.00
2013-10-29,37,34,32,34,30,23,91,83,69,30.34,29.95,14,9,18,0.04
2013-10-30,44,40,36,43,39,34,98,97,90,30.02,29.57,11,5,13,0.04
2013-10-31,41,38,36,41,38,36,98,97,94,29.63,29.33,9,6,15,0.00
2013-11-1,50,40,34,39,36,32,97,85,60,29.82,29.33,15,6,20,0.04
2013-11-2,55,39,30,40,32,26,98,79,49,30.00,29.76,8,3,11,0.00
2013-11-3,55,45,36,35,32,29,90,62,38,29.96,29.62,19,10,35,0.00
2013-11-4,49,42,32,40,33,27,87,71,51,30.06,29.62,16,6,22,0.00
2013-11-5,38,33,28,28,25,20,88,75,50,30.17,29.97,7,2,10,0.00
2013-11-6,44,33,24,28,24,20,90,73,42,30.07,29.99,9,4,14,0.05
2013-11-7,41,30,23,30,23,17,96,78,45,30.17,30.05,10,3,17,0.00
2013-11-8,42,34,21,40,27,17,96,75,53,30.09,29.48,25,8,35,0.04
2013-11-9,43,39,36,39,29,22,93,69,50,30.17,29.55,24,14,34,0.00
2013-11-10,36,33,26,30,26,20,87,74,61,30.26,29.99,14,4,20,0.00
2013-11-11,35,20,11,29,6,1,80,54,45,30.70,30.05,13,7,18,0.00
2013-11-12,32,19,8,12,5,-2,76,55,35,30.77,30.30,9,4,11,0.00
2013-11-13,54,36,23,32,23,10,78,61,43,30.30,29.77,11,5,15,0.00
2013-11-14,54,39,26,35,30,20,86,71,48,29.84,29.67,15,4,24,0.00
2013-11-15,57,39,22,40,30,18,95,72,45,29.81,29.45,8,3,14,0.00
2013-11-16,46,42,37,46,40,33,98,92,71,29.48,29.13,13,5,16,0.00
2013-11-17,42,37,29,41,33,20,98,85,68,29.82,29.20,22,12,31,0.00
2013-11-18,36,28,20,22,18,12,81,66,48,30.18,29.79,23,8,31,0.00
2013-11-19,50,38,25,31,26,19,80,63,46,30.14,29.66,20,10,30,0.00
2013-11-20,48,42,33,32,29,26,88,61,51,29.93,29.63,12,6,19,0.00
2013-11-21,34,23,17,30,13,6,89,67,54,30.53,29.93,18,9,25,0.00
2013-11-22,34,16,6,10,3,-4,70,57,33,30.68,30.33,16,7,25,0.00
2013-11-23,17,8,2,2,-6,-11,56,52,46,30.85,30.59,10,4,15,0.00
2013-11-24,39,24,8,23,7,-7,63,49,40,30.62,29.77,12,6,17,0.00
2013-11-25,40,33,27,26,22,14,85,65,49,30.04,29.77,17,10,26,0.00
2013-11-26,27,18,10,14,4,-1,69,55,46,30.37,30.04,19,9,29,0.00
2013-11-27,23,15,4,9,3,-6,74,57,50,30.40,29.93,17,5,24,0.00
2013-11-28,26,19,6,12,5,-5,67,55,45,30.44,29.96,12,5,17,0.00
2013-11-29,36,24,6,18,11,-6,73,58,46,30.44,29.98,13,5,18,0.00
2013-11-30,38,26,16,23,17,10,89,70,51,30.15,29.93,11,4,15,0.00
2013-12-1,33,24,14,26,19,9,91,80,67,30.17,29.79,9,3,11,0.00
2013-12-2,35,32,28,34,29,22,97,87,76,29.79,29.41,15,8,20,0.04
2013-12-3,34,33,32,33,33,32,98,98,96,29.72,29.47,15,7,19,0.00
2013-12-4,32,24,7,32,21,3,96,89,82,29.73,29.43,26,11,36,0.00
2013-12-5,7,3,-3,3,-1,-7,83,83,83,30.32,29.73,26,14,33,0.00
2013-12-6,3,-6,-10,0,-9,-14,83,83,83,30.65,30.32,14,6,18,0.00
2013-12-7,1,-8,-14,-3,-11,-18,83,83,83,30.69,30.51,9,4,11,0.00
2013-12-8,15,4,-6,10,-3,-15,83,72,58,30.51,30.00,14,6,16,0.00
2013-12-9,6,-2,-8,-6,-13,-19,58,58,58,30.11,29.73,19,8,29,0.00
2013-12-10,12,5,-4,0,-6,-15,58,58,58,30.34,29.65,19,8,26,0.00
2013-12-11,2,-6,-14,-8,-16,-24,58,58,58,30.56,30.20,9,4,13,0.00
2013-12-12,19,9,-3,6,-2,-14,70,60,54,30.25,30.08,7,2,10,0.00
2013-12-13,13,10,6,6,2,-2,70,70,70,30.26,30.02,21,13,26,0.00
2013-12-14,10,5,-3,2,-2,-10,70,70,70,30.26,30.06,14,7,18,0.00
2013-12-15,8,2,-2,1,-5,-9,70,70,70,30.17,30.04,11,5,13,0.00
2013-12-16,30,12,3,24,5,-4,92,72,62,30.08,29.79,13,5,17,0.00
2013-12-17,32,20,2,26,12,-6,85,70,56,30.09,29.78,23,10,33,0.00
2013-12-18,35,22,3,23,14,-5,88,70,60,30.02,29.53,13,4,20,0.00
2013-12-19,20,12,10,14,4,2,78,69,68,30.09,29.81,18,9,23,0.00
2013-12-20,17,10,4,5,1,-3,68,65,56,30.03,29.80,13,5,17,0.00
2013-12-21,16,12,8,8,2,-3,75,63,60,29.99,29.78,10,4,12,0.00
2013-12-22,10,3,-8,0,-7,-17,61,61,61,30.30,29.97,14,7,19,0.00
2013-12-23,-3,-12,-19,-13,-21,-28,61,61,61,30.55,30.30,11,6,16,0.00
2013-12-24,12,-1,-21,1,-11,-30,61,61,61,30.53,30.03,14,5,20,0.00
2013-12-25,27,17,10,25,11,1,95,76,61,30.15,29.92,19,6,31,0.00
2013-12-26,33,20,5,24,14,0,85,77,66,30.09,29.90,6,2,7,0.00
2013-12-27,41,31,21,32,26,19,95,82,61,30.11,29.76,13,5,19,0.08
2013-12-28,41,25,10,33,21,3,97,84,57,30.15,29.54,16,6,23,0.00
2013-12-29,10,-8,-18,3,-15,-24,71,71,71,30.46,30.09,13,6,20,0.00
2013-12-30,8,-4,-17,0,-11,-23,71,71,71,30.31,30.10,14,4,19,0.00
2013-12-31,1,-5,-14,-5,-12,-20,71,71,71,30.38,30.23,9,4,12,0.00
2014-1-1,-6,-6,-6,-12,-12,-12,71,71,71,30.48,30.32,1,1,1,0.00
2014-1-2,-6,-6,-6,-12,-12,-12,71,71,71,30.51,30.26,7,2,8,0.00